Time,TemperatureF,DewpointF,PressureIn,WindDirection,WindDirectionDegrees,WindSpeedMPH,WindSpeedGustMPH,Humidity,HourlyPrecipIn,Conditions,Clouds,dailyrainin,SoftwareType,DateUTC
2013-09-09 00:00:00,67.5,65.7,29.82,East,86,4.0,11.0,94,0.00,,,0.00,VWS V14.01,2013-09-09 05:00:00,
2013-09-09 00:02:00,67.7,66.2,29.81,East,99,8.0,10.0,95,0.00,,CLR,0.00,VWS V14.01,2013-09-09 05:02:00,
2013-09-09 00:07:00,67.7,66.2,29.81,East,94,10.0,11.0,95,0.00,,CLR,0.00,VWS V14.01,2013-09-09 05:07:00,
2013-09-09 00:12:00,67.8,66.3,29.80,ESE,123,6.0,12.0,95,0.00,,CLR,0.00,VWS V14.01,2013-09-09 05:12:00,
2013-09-09 00:17:00,67.8,66.3,29.80,ESE,109,8.0,12.0,95,0.00,,CLR,0.00,VWS V14.01,2013-09-09 05:17:00,
2013-09-09 00:22:00,67.9,66.4,29.80,ESE,117,7.0,12.0,95,0.00,,CLR,0.00,VWS V14.01,2013-09-09 05:22:00,
2013-09-09 00:27:00,68.2,66.7,29.80,ESE,113,8.0,13.0,95,0.00,,CLR,0.00,VWS V14.01,2013-09-09 05:27:00,
2013-09-09 00:30:00,67.7,65.9,29.81,East,92,2.0,10.0,94,0.00,,,0.00,VWS V14.01,2013-09-09 05:30:00,
2013-09-09 00:32:00,68.3,66.8,29.80,ESE,103,10.0,12.0,95,0.00,,CLR,0.00,VWS V14.01,2013-09-09 05:32:00,
2013-09-09 00:37:00,68.3,66.8,29.80,East,94,9.0,12.0,95,0.00,,CLR,0.00,VWS V14.01,2013-09-09 05:37:00,
2013-09-09 00:42:00,68.3,66.8,29.80,ESE,117,7.0,12.0,95,0.00,,CLR,0.00,VWS V14.01,2013-09-09 05:42:00,
2013-09-09 00:47:00,68.3,66.8,29.80,ESE,109,9.0,12.0,95,0.00,,CLR,0.00,VWS V14.01,2013-09-09 05:47:00,
2013-09-09 00:52:00,68.3,66.8,29.80,ESE,108,8.0,12.0,95,0.00,,CLR,0.00,VWS V14.01,2013-09-09 05:52:00,
2013-09-09 00:57:00,68.2,66.7,29.80,ESE,104,10.0,12.0,95,0.00,,CLR,0.00,VWS V14.01,2013-09-09 05:57:00,
2013-09-09 01:00:00,67.7,66.2,29.81,ESE,106,9.0,12.0,95,0.00,,,0.00,VWS V14.01,2013-09-09 06:00:00,
2013-09-09 01:02:00,68.1,66.6,29.80,ESE,103,8.0,11.0,95,0.00,,CLR,0.00,VWS V14.01,2013-09-09 06:02:00,
2013-09-09 01:07:00,68.1,66.6,29.79,East,87,7.0,11.0,95,0.00,,CLR,0.00,VWS V14.01,2013-09-09 06:07:00,
2013-09-09 01:11:00,68.0,66.5,29.79,East,98,6.0,11.0,95,0.00,,CLR,0.00,VWS V14.01,2013-09-09 06:11:00,
2013-09-09 01:17:00,68.0,66.8,29.79,ESE,103,8.0,11.0,96,0.00,,CLR,0.00,VWS V14.01,2013-09-09 06:17:00,
2013-09-09 01:21:00,67.9,66.7,29.79,East,94,8.0,12.0,96,0.00,,CLR,0.00,VWS V14.01,2013-09-09 06:21:00,
2013-09-09 01:26:00,67.9,66.7,29.79,ESE,108,5.0,12.0,96,0.00,,CLR,0.00,VWS V14.01,2013-09-09 06:26:00,
2013-09-09 01:30:00,68.3,66.8,29.80,ESE,114,8.0,13.0,95,0.00,,,0.00,VWS V14.01,2013-09-09 06:30:00,
2013-09-09 01:31:00,67.8,66.6,29.79,ESE,110,7.0,9.0,96,0.00,,CLR,0.00,VWS V14.01,2013-09-09 06:31:00,
2013-09-09 01:36:00,67.8,66.6,29.79,ESE,106,6.0,10.0,96,0.00,,CLR,0.00,VWS V14.01,2013-09-09 06:36:00,
2013-09-09 01:42:00,67.7,66.8,29.78,ESE,112,6.0,11.0,97,0.00,,CLR,0.00,VWS V14.01,2013-09-09 06:42:00,
2013-09-09 01:47:00,67.7,66.8,29.79,ESE,109,8.0,11.0,97,0.00,,,0.00,VWS V14.01,2013-09-09 06:47:00,
2013-09-09 01:52:00,67.6,66.7,29.78,East,97,6.0,11.0,97,0.00,,,0.00,VWS V14.01,2013-09-09 06:52:00,
2013-09-09 01:57:00,67.6,66.7,29.78,East,101,7.0,11.0,97,0.00,,,0.00,VWS V14.01,2013-09-09 06:57:00,
2013-09-09 02:00:00,68.2,66.7,29.80,ESE,115,6.0,12.0,95,0.00,,,0.00,VWS V14.01,2013-09-09 07:00:00,
2013-09-09 02:02:00,67.5,66.6,29.78,ESE,102,7.0,8.0,97,0.00,,,0.00,VWS V14.01,2013-09-09 07:02:00,
2013-09-09 02:06:00,67.5,66.6,29.78,ESE,108,6.0,9.0,97,0.00,,,0.00,VWS V14.01,2013-09-09 07:06:00,
2013-09-09 02:11:00,67.5,66.6,29.78,ESE,112,8.0,9.0,97,0.00,,,0.00,VWS V14.01,2013-09-09 07:11:00,
2013-09-09 02:16:00,67.5,66.6,29.78,ESE,105,5.0,9.0,97,0.00,,,0.00,VWS V14.01,2013-09-09 07:16:00,
2013-09-09 02:21:00,67.5,66.6,29.78,ESE,105,6.0,9.0,97,0.00,,,0.00,VWS V14.01,2013-09-09 07:21:00,
2013-09-09 02:26:00,67.6,66.7,29.77,East,94,7.0,10.0,97,0.00,,,0.00,VWS V14.01,2013-09-09 07:26:00,
2013-09-09 02:30:00,67.8,66.6,29.79,ESE,102,5.0,12.0,96,0.00,,,0.00,VWS V14.01,2013-09-09 07:30:00,
2013-09-09 02:31:00,67.6,66.7,29.77,East,98,7.0,8.0,97,0.00,,,0.00,VWS V14.01,2013-09-09 07:31:00,
2013-09-09 02:36:00,67.6,66.7,29.77,ESE,111,8.0,9.0,97,0.00,,,0.00,VWS V14.01,2013-09-09 07:36:00,
2013-09-09 02:41:00,67.6,67.0,29.77,East,98,7.0,11.0,98,0.00,,,0.00,VWS V14.01,2013-09-09 07:41:00,
2013-09-09 02:46:00,67.6,67.0,29.77,East,95,12.0,13.0,98,0.00,,,0.00,VWS V14.01,2013-09-09 07:46:00,
2013-09-09 02:51:00,67.7,67.1,29.77,ESE,116,8.0,13.0,98,0.00,,,0.00,VWS V14.01,2013-09-09 07:51:00,
2013-09-09 02:56:00,67.7,67.1,29.76,ESE,119,10.0,13.0,98,0.00,,,0.00,VWS V14.01,2013-09-09 07:56:00,
2013-09-09 03:00:00,67.5,66.6,29.78,East,98,7.0,11.0,97,0.00,,,0.00,VWS V14.01,2013-09-09 08:00:00,
2013-09-09 03:01:00,67.8,67.2,29.76,ESE,102,8.0,9.0,98,0.00,,,0.00,VWS V14.01,2013-09-09 08:01:00,
2013-09-09 03:06:00,67.8,67.2,29.76,ESE,123,10.0,11.0,98,0.00,,,0.00,VWS V14.01,2013-09-09 08:06:00,
2013-09-09 03:11:00,67.9,67.3,29.76,ESE,113,7.0,11.0,98,0.00,,,0.00,VWS V14.01,2013-09-09 08:11:00,
2013-09-09 03:16:00,67.9,67.3,29.76,ESE,109,10.0,12.0,98,0.00,,,0.00,VWS V14.01,2013-09-09 08:16:00,
2013-09-09 03:21:00,67.9,67.3,29.76,SE,129,9.0,12.0,98,0.00,,,0.00,VWS V14.01,2013-09-09 08:21:00,
2013-09-09 03:26:00,68.0,67.4,29.76,SE,129,10.0,12.0,98,0.00,,,0.00,VWS V14.01,2013-09-09 08:26:00,
2013-09-09 03:30:00,67.6,66.7,29.78,ESE,104,7.0,10.0,97,0.00,,,0.00,VWS V14.01,2013-09-09 08:30:00,
2013-09-09 03:31:00,68.0,67.4,29.76,SE,138,6.0,8.0,98,0.00,,,0.00,VWS V14.01,2013-09-09 08:31:00,
2013-09-09 03:36:00,68.0,67.4,29.76,ESE,105,6.0,11.0,98,0.00,,,0.00,VWS V14.01,2013-09-09 08:36:00,
2013-09-09 03:41:00,68.1,67.5,29.76,ESE,116,10.0,12.0,98,0.00,,,0.00,VWS V14.01,2013-09-09 08:41:00,
2013-09-09 03:46:00,68.1,67.5,29.76,ESE,105,8.0,12.0,98,0.00,,,0.00,VWS V14.01,2013-09-09 08:46:00,
2013-09-09 03:51:00,68.1,67.5,29.76,ESE,120,9.0,13.0,98,0.00,,,0.00,VWS V14.01,2013-09-09 08:51:00,
2013-09-09 03:56:00,68.1,67.5,29.76,East,96,8.0,13.0,98,0.00,,,0.00,VWS V14.01,2013-09-09 08:56:00,
2013-09-09 04:00:00,67.8,67.2,29.76,ESE,121,7.0,13.0,98,0.00,,,0.00,VWS V14.01,2013-09-09 09:00:00,
2013-09-09 04:01:00,68.1,67.5,29.75,SE,125,8.0,11.0,98,0.00,,,0.00,VWS V14.01,2013-09-09 09:01:00,
2013-09-09 04:06:00,68.1,67.5,29.75,ESE,116,11.0,11.0,98,0.00,,,0.00,VWS V14.01,2013-09-09 09:06:00,
2013-09-09 04:11:00,68.1,67.5,29.75,ESE,109,6.0,12.0,98,0.00,,,0.00,VWS V14.01,2013-09-09 09:11:00,
2013-09-09 04:16:00,68.1,67.5,29.75,ESE,108,7.0,14.0,98,0.00,,,0.00,VWS V14.01,2013-09-09 09:16:00,
2013-09-09 04:21:00,68.1,67.5,29.75,ESE,108,11.0,14.0,98,0.00,,,0.00,VWS V14.01,2013-09-09 09:21:00,
2013-09-09 04:26:00,68.2,67.6,29.75,ESE,116,8.0,14.0,98,0.00,,,0.00,VWS V14.01,2013-09-09 09:26:00,
2013-09-09 04:30:00,68.0,67.4,29.76,ESE,120,8.0,12.0,98,0.00,,,0.00,VWS V14.01,2013-09-09 09:30:00,
2013-09-09 04:31:00,68.2,67.6,29.75,East,98,7.0,9.0,98,0.00,,,0.00,VWS V14.01,2013-09-09 09:31:00,
2013-09-09 04:36:00,68.3,68.0,29.75,ESE,120,10.0,11.0,99,0.00,,,0.00,VWS V14.01,2013-09-09 09:36:00,
2013-09-09 04:41:00,68.3,68.0,29.75,SE,133,7.0,11.0,99,0.00,,,0.00,VWS V14.01,2013-09-09 09:41:00,
2013-09-09 04:46:00,68.3,68.0,29.75,SE,145,6.0,11.0,99,0.00,,,0.00,VWS V14.01,2013-09-09 09:46:00,
2013-09-09 04:51:00,68.4,68.1,29.75,SE,132,6.0,11.0,99,0.00,,,0.00,VWS V14.01,2013-09-09 09:51:00,
2013-09-09 04:56:00,68.4,68.1,29.74,ESE,115,10.0,12.0,99,0.00,,,0.00,VWS V14.01,2013-09-09 09:56:00,
2013-09-09 05:00:00,68.1,67.5,29.75,ESE,123,7.0,13.0,98,0.00,,,0.00,VWS V14.01,2013-09-09 10:00:00,
2013-09-09 05:01:00,68.4,68.1,29.74,SE,134,10.0,12.0,99,0.00,,,0.00,VWS V14.01,2013-09-09 10:01:00,
2013-09-09 05:06:00,68.5,68.2,29.74,East,101,10.0,13.0,99,0.00,,,0.00,VWS V14.01,2013-09-09 10:06:00,
2013-09-09 05:11:00,68.5,68.2,29.74,ESE,118,7.0,15.0,99,0.00,,,0.00,VWS V14.01,2013-09-09 10:11:00,
2013-09-09 05:16:00,68.5,68.2,29.74,ESE,112,13.0,15.0,99,0.00,,,0.00,VWS V14.01,2013-09-09 10:16:00,
2013-09-09 05:21:00,68.5,68.2,29.74,SE,127,8.0,15.0,99,0.00,,,0.00,VWS V14.01,2013-09-09 10:21:00,
2013-09-09 05:26:00,68.5,68.2,29.74,East,100,9.0,15.0,99,0.00,,,0.00,VWS V14.01,2013-09-09 10:26:00,
2013-09-09 05:30:00,68.2,67.6,29.75,ESE,113,9.0,14.0,98,0.00,,,0.00,VWS V14.01,2013-09-09 10:30:00,
2013-09-09 05:31:00,68.5,68.2,29.74,SE,129,8.0,10.0,99,0.00,,,0.00,VWS V14.01,2013-09-09 10:31:00,
2013-09-09 05:36:00,68.5,68.2,29.74,ESE,114,11.0,13.0,99,0.00,,,0.00,VWS V14.01,2013-09-09 10:36:00,
2013-09-09 05:41:00,68.5,68.2,29.74,SE,127,6.0,13.0,99,0.00,,,0.00,VWS V14.01,2013-09-09 10:41:00,
2013-09-09 05:46:00,68.5,68.2,29.74,ESE,113,9.0,13.0,99,0.00,,,0.00,VWS V14.01,2013-09-09 10:46:00,
2013-09-09 05:51:00,68.5,68.2,29.74,ESE,115,7.0,13.0,99,0.00,,,0.00,VWS V14.01,2013-09-09 10:51:00,
2013-09-09 05:56:00,68.5,68.2,29.74,SE,124,6.0,13.0,99,0.00,,,0.00,VWS V14.01,2013-09-09 10:56:00,
2013-09-09 06:00:00,68.4,68.1,29.74,SE,133,7.0,12.0,99,0.00,,,0.00,VWS V14.01,2013-09-09 11:00:00,
2013-09-09 06:01:00,68.5,68.2,29.74,SE,128,11.0,12.0,99,0.00,,,0.00,VWS V14.01,2013-09-09 11:01:00,
2013-09-09 06:06:00,68.6,68.3,29.74,SE,125,8.0,13.0,99,0.00,,,0.00,VWS V14.01,2013-09-09 11:06:00,
2013-09-09 06:11:00,68.6,68.3,29.74,ESE,120,7.0,13.0,99,0.00,,,0.00,VWS V14.01,2013-09-09 11:11:00,
2013-09-09 06:16:00,68.6,68.3,29.74,ESE,115,8.0,13.0,99,0.00,,,0.00,VWS V14.01,2013-09-09 11:16:00,
2013-09-09 06:21:00,68.6,68.3,29.74,SE,124,7.0,13.0,99,0.00,,,0.00,VWS V14.01,2013-09-09 11:21:00,
2013-09-09 06:26:00,68.6,68.3,29.74,ESE,113,8.0,13.0,99,0.00,,,0.00,VWS V14.01,2013-09-09 11:26:00,
2013-09-09 06:30:00,68.5,68.2,29.74,SE,128,9.0,15.0,99,0.00,,,0.00,VWS V14.01,2013-09-09 11:30:00,
2013-09-09 06:31:00,68.6,68.3,29.74,ESE,117,8.0,9.0,99,0.00,,,0.00,VWS V14.01,2013-09-09 11:31:00,
2013-09-09 06:36:00,68.6,68.3,29.74,ESE,115,7.0,9.0,99,0.00,,,0.00,VWS V14.01,2013-09-09 11:36:00,
2013-09-09 06:41:00,68.6,68.3,29.75,ESE,120,7.0,9.0,99,0.00,,,0.00,VWS V14.01,2013-09-09 11:41:00,
2013-09-09 06:46:00,68.6,68.3,29.75,SE,125,8.0,9.0,99,0.00,,,0.00,VWS V14.01,2013-09-09 11:46:00,
2013-09-09 06:51:00,68.6,68.3,29.75,SE,134,6.0,9.0,99,0.00,,,0.00,VWS V14.01,2013-09-09 11:51:00,
2013-09-09 06:56:00,68.6,68.3,29.75,ESE,118,8.0,11.0,99,0.00,,,0.00,VWS V14.01,2013-09-09 11:56:00,
2013-09-09 07:00:00,68.5,68.2,29.74,SE,141,10.0,13.0,99,0.00,,,0.00,VWS V14.01,2013-09-09 12:00:00,
2013-09-09 07:01:00,68.6,68.3,29.75,ESE,108,7.0,8.0,99,0.00,,,0.00,VWS V14.01,2013-09-09 12:01:00,
2013-09-09 07:06:00,68.6,68.3,29.75,SE,134,8.0,9.0,99,0.00,,,0.00,VWS V14.01,2013-09-09 12:06:00,
2013-09-09 07:11:00,68.7,68.4,29.75,ESE,112,8.0,10.0,99,0.00,,,0.00,VWS V14.01,2013-09-09 12:11:00,
2013-09-09 07:16:00,68.7,68.4,29.75,ESE,102,7.0,12.0,99,0.00,,,0.00,VWS V14.01,2013-09-09 12:16:00,
2013-09-09 07:21:00,68.7,68.4,29.75,ESE,104,7.0,12.0,99,0.00,,,0.00,VWS V14.01,2013-09-09 12:21:00,
2013-09-09 07:26:00,68.7,68.4,29.74,ESE,117,7.0,12.0,99,0.00,,,0.00,VWS V14.01,2013-09-09 12:26:00,
2013-09-09 07:30:00,68.6,68.3,29.74,ESE,115,8.0,13.0,99,0.00,,,0.00,VWS V14.01,2013-09-09 12:30:00,
2013-09-09 07:31:00,68.8,68.5,29.74,SE,145,5.0,9.0,99,0.00,,,0.00,VWS V14.01,2013-09-09 12:31:00,
2013-09-09 07:36:00,68.8,68.5,29.74,ESE,110,10.0,10.0,99,0.00,,,0.00,VWS V14.01,2013-09-09 12:36:00,
2013-09-09 07:41:00,68.8,68.5,29.74,SE,125,8.0,10.0,99,0.00,,,0.00,VWS V14.01,2013-09-09 12:41:00,
2013-09-09 07:46:00,68.9,68.6,29.74,SSE,149,7.0,10.0,99,0.00,,,0.00,VWS V14.01,2013-09-09 12:46:00,
2013-09-09 07:51:00,69.0,68.7,29.74,SE,137,5.0,10.0,99,0.00,,,0.00,VWS V14.01,2013-09-09 12:51:00,
2013-09-09 07:56:00,69.0,68.7,29.74,SE,132,6.0,10.0,99,0.00,,,0.00,VWS V14.01,2013-09-09 12:56:00,
2013-09-09 08:00:00,68.6,68.3,29.75,ESE,110,8.0,11.0,99,0.00,,,0.00,VWS V14.01,2013-09-09 13:00:00,
2013-09-09 08:01:00,69.2,68.9,29.74,SE,146,9.0,10.0,99,0.00,,,0.00,VWS V14.01,2013-09-09 13:01:00,
2013-09-09 08:06:00,69.2,68.9,29.74,ESE,108,7.0,10.0,99,0.00,,,0.00,VWS V14.01,2013-09-09 13:06:00,
2013-09-09 08:11:00,69.4,69.1,29.74,ESE,119,5.0,10.0,99,0.00,,,0.00,VWS V14.01,2013-09-09 13:11:00,
2013-09-09 08:16:00,69.5,69.2,29.74,ESE,117,7.0,12.0,99,0.00,,,0.00,VWS V14.01,2013-09-09 13:16:00,
2013-09-09 08:21:00,69.6,69.6,29.74,SE,141,7.0,12.0,100,0.00,,,0.00,VWS V14.01,2013-09-09 13:21:00,
2013-09-09 08:26:00,69.7,69.4,29.74,SE,134,7.0,12.0,99,0.00,,,0.00,VWS V14.01,2013-09-09 13:26:00,
2013-09-09 08:30:00,68.8,68.5,29.74,ESE,114,5.0,12.0,99,0.00,,,0.00,VWS V14.01,2013-09-09 13:30:00,
2013-09-09 08:31:00,69.8,69.8,29.74,SSE,155,7.0,11.0,100,0.00,,,0.00,VWS V14.01,2013-09-09 13:31:00,
2013-09-09 08:36:00,69.9,69.9,29.74,South,173,3.0,11.0,100,0.00,,,0.00,VWS V14.01,2013-09-09 13:36:00,
2013-09-09 08:41:00,70.0,70.0,29.75,SE,142,6.0,11.0,100,0.00,,,0.00,VWS V14.01,2013-09-09 13:41:00,
2013-09-09 08:46:00,70.1,70.1,29.75,SE,144,7.0,11.0,100,0.00,,,0.00,VWS V14.01,2013-09-09 13:46:00,
2013-09-09 08:51:00,70.3,70.3,29.75,SSE,156,7.0,11.0,100,0.00,,,0.00,VWS V14.01,2013-09-09 13:51:00,
2013-09-09 08:56:00,70.3,70.3,29.74,SSE,150,8.0,11.0,100,0.00,,,0.00,VWS V14.01,2013-09-09 13:56:00,
2013-09-09 09:00:00,69.1,68.8,29.74,SE,142,6.0,12.0,99,0.00,,,0.00,VWS V14.01,2013-09-09 14:00:00,
2013-09-09 09:01:00,70.3,70.3,29.74,SE,134,9.0,10.0,100,0.00,,,0.00,VWS V14.01,2013-09-09 14:01:00,
2013-09-09 09:06:00,70.7,70.7,29.74,SE,135,5.0,12.0,100,0.00,,,0.00,VWS V14.01,2013-09-09 14:06:00,
2013-09-09 09:11:00,70.7,70.7,29.74,SSW,200,5.0,12.0,100,0.00,,,0.00,VWS V14.01,2013-09-09 14:11:00,
2013-09-09 09:16:00,70.8,70.8,29.74,SE,140,6.0,12.0,100,0.00,,,0.00,VWS V14.01,2013-09-09 14:16:00,
2013-09-09 09:21:00,70.9,70.9,29.74,SSE,158,6.0,12.0,100,0.00,,,0.00,VWS V14.01,2013-09-09 14:21:00,
2013-09-09 09:26:00,70.9,70.9,29.74,SE,136,7.0,12.0,100,0.00,,,0.00,VWS V14.01,2013-09-09 14:26:00,
2013-09-09 09:30:00,69.8,69.8,29.74,SSE,153,9.0,12.0,100,0.00,,,0.00,VWS V14.01,2013-09-09 14:30:00,
2013-09-09 09:31:00,71.2,71.2,29.74,SE,136,7.0,9.0,100,0.00,,,0.00,VWS V14.01,2013-09-09 14:31:00,
2013-09-09 09:36:00,71.4,71.4,29.73,SSE,150,7.0,11.0,100,0.00,,,0.00,VWS V14.01,2013-09-09 14:36:00,
2013-09-09 09:41:00,71.9,71.9,29.74,SE,133,7.0,11.0,100,0.00,,,0.00,VWS V14.01,2013-09-09 14:41:00,
2013-09-09 09:46:00,72.1,72.1,29.73,SE,142,6.0,11.0,100,0.00,,,0.00,VWS V14.01,2013-09-09 14:46:00,
2013-09-09 09:51:00,72.4,72.4,29.73,SSE,153,8.0,11.0,100,0.00,,,0.00,VWS V14.01,2013-09-09 14:51:00,
2013-09-09 09:56:00,72.5,72.2,29.73,SE,139,9.0,11.0,99,0.00,,,0.00,VWS V14.01,2013-09-09 14:56:00,
2013-09-09 10:00:00,70.3,70.3,29.74,South,177,6.0,11.0,100,0.00,,,0.00,VWS V14.01,2013-09-09 15:00:00,
2013-09-09 10:01:00,73.1,72.8,29.73,SSE,155,5.0,7.0,99,0.00,,,0.00,VWS V14.01,2013-09-09 15:01:00,
2013-09-09 10:06:00,73.4,73.1,29.73,SSE,163,5.0,9.0,99,0.00,,,0.00,VWS V14.01,2013-09-09 15:06:00,
2013-09-09 10:11:00,73.9,73.6,29.73,SE,138,7.0,9.0,99,0.00,,,0.00,VWS V14.01,2013-09-09 15:11:00,
2013-09-09 10:16:00,74.6,74.0,29.73,SE,131,8.0,11.0,98,0.00,,,0.00,VWS V14.01,2013-09-09 15:16:00,
2013-09-09 10:21:00,75.7,73.8,29.73,SSE,166,2.0,11.0,94,0.00,,,0.00,VWS V14.01,2013-09-09 15:21:00,
2013-09-09 10:26:00,76.9,73.8,29.73,SSE,158,3.0,11.0,90,0.00,,,0.00,VWS V14.01,2013-09-09 15:26:00,
2013-09-09 10:30:00,71.1,71.1,29.74,SE,140,6.0,12.0,100,0.00,,,0.00,VWS V14.01,2013-09-09 15:30:00,
2013-09-09 10:31:00,78.0,73.8,29.73,SSE,167,3.0,5.0,87,0.00,,,0.00,VWS V14.01,2013-09-09 15:31:00,
2013-09-09 10:36:00,79.0,73.8,29.72,SSE,165,3.0,7.0,84,0.00,,,0.00,VWS V14.01,2013-09-09 15:36:00,
2013-09-09 10:41:00,79.4,73.8,29.72,SSE,155,7.0,10.0,83,0.00,,,0.00,VWS V14.01,2013-09-09 15:41:00,
2013-09-09 10:46:00,79.9,73.6,29.72,South,169,7.0,10.0,81,0.00,,,0.00,VWS V14.01,2013-09-09 15:46:00,
2013-09-09 10:51:00,80.6,72.3,29.72,SW,215,10.0,10.0,76,0.00,,,0.00,VWS V14.01,2013-09-09 15:51:00,
2013-09-09 10:56:00,81.3,73.0,29.72,South,177,5.0,10.0,76,0.00,,,0.00,VWS V14.01,2013-09-09 15:56:00,
2013-09-09 11:00:00,73.0,72.7,29.73,WSW,248,5.0,11.0,99,0.00,,,0.00,VWS V14.01,2013-09-09 16:00:00,
2013-09-09 11:01:00,81.6,72.5,29.72,SSW,212,5.0,8.0,74,0.00,,CLR,0.00,VWS V14.01,2013-09-09 16:01:00,
2013-09-09 11:06:00,82.1,72.2,29.72,SSE,153,7.0,8.0,72,0.00,,CLR,0.00,VWS V14.01,2013-09-09 16:06:00,
2013-09-09 11:11:00,82.5,72.6,29.72,South,190,5.0,11.0,72,0.00,,CLR,0.00,VWS V14.01,2013-09-09 16:11:00,
2013-09-09 11:16:00,83.0,71.8,29.72,SSW,203,6.0,12.0,69,0.00,,CLR,0.00,VWS V14.01,2013-09-09 16:16:00,
2013-09-09 11:21:00,83.6,71.9,29.72,SW,225,4.0,12.0,68,0.00,,CLR,0.00,VWS V14.01,2013-09-09 16:21:00,
2013-09-09 11:26:00,84.1,72.0,29.71,SSW,194,7.0,12.0,67,0.00,,CLR,0.00,VWS V14.01,2013-09-09 16:26:00,
2013-09-09 11:30:00,77.9,73.7,29.73,SSE,162,2.0,11.0,87,0.00,,,0.00,VWS V14.01,2013-09-09 16:30:00,
2013-09-09 11:31:00,84.7,72.1,29.72,WSW,251,8.0,8.0,66,0.00,,CLR,0.00,VWS V14.01,2013-09-09 16:31:00,
2013-09-09 11:36:00,84.9,72.3,29.71,SSW,208,3.0,8.0,66,0.00,,CLR,0.00,VWS V14.01,2013-09-09 16:36:00,
2013-09-09 11:41:00,85.5,71.9,29.71,South,190,9.0,11.0,64,0.00,,CLR,0.00,VWS V14.01,2013-09-09 16:41:00,
2013-09-09 11:46:00,85.6,70.6,29.71,WSW,239,6.0,11.0,61,0.00,,CLR,0.00,VWS V14.01,2013-09-09 16:46:00,
2013-09-09 11:51:00,85.5,71.5,29.71,SW,218,5.0,11.0,63,0.00,,CLR,0.00,VWS V14.01,2013-09-09 16:51:00,
2013-09-09 11:56:00,86.0,71.5,29.71,SSW,198,6.0,11.0,62,0.00,,CLR,0.00,VWS V14.01,2013-09-09 16:56:00,
2013-09-09 12:00:00,81.5,72.4,29.72,SSW,210,8.0,10.0,74,0.00,,,0.00,VWS V14.01,2013-09-09 17:00:00,
2013-09-09 12:01:00,85.8,70.3,29.71,SW,214,11.0,11.0,60,0.00,,CLR,0.00,VWS V14.01,2013-09-09 17:01:00,
2013-09-09 12:06:00,85.6,70.6,29.71,SSW,207,3.0,13.0,61,0.00,,CLR,0.00,VWS V14.01,2013-09-09 17:06:00,
2013-09-09 12:11:00,85.6,70.6,29.71,SSW,212,6.0,13.0,61,0.00,,CLR,0.00,VWS V14.01,2013-09-09 17:11:00,
2013-09-09 12:16:00,86.1,71.1,29.70,SSW,194,5.0,13.0,61,0.00,,CLR,0.00,VWS V14.01,2013-09-09 17:16:00,
2013-09-09 12:21:00,86.5,70.5,29.70,SSW,195,5.0,13.0,59,0.00,,CLR,0.00,VWS V14.01,2013-09-09 17:21:00,
2013-09-09 12:26:00,87.0,70.4,29.70,SW,225,8.0,13.0,58,0.00,,CLR,0.00,VWS V14.01,2013-09-09 17:26:00,
2013-09-09 12:30:00,84.6,72.9,29.72,WSW,245,6.0,12.0,68,0.00,,,0.00,VWS V14.01,2013-09-09 17:30:00,
2013-09-09 12:31:00,87.1,70.5,29.70,West,260,5.0,10.0,58,0.00,,CLR,0.00,VWS V14.01,2013-09-09 17:31:00,
2013-09-09 12:36:00,87.3,70.7,29.70,WNW,285,6.0,10.0,58,0.00,,CLR,0.00,VWS V14.01,2013-09-09 17:36:00,
2013-09-09 12:41:00,87.4,71.3,29.70,SSE,160,5.0,11.0,59,0.00,,CLR,0.00,VWS V14.01,2013-09-09 17:41:00,
2013-09-09 12:46:00,87.3,70.7,29.69,SSW,198,11.0,12.0,58,0.00,,CLR,0.00,VWS V14.01,2013-09-09 17:46:00,
2013-09-09 12:51:00,87.7,70.6,29.69,SSE,158,7.0,12.0,57,0.00,,CLR,0.00,VWS V14.01,2013-09-09 17:51:00,
2013-09-09 12:56:00,87.7,70.6,29.69,SSE,148,5.0,12.0,57,0.00,,CLR,0.00,VWS V14.01,2013-09-09 17:56:00,
2013-09-09 13:00:00,85.8,70.3,29.71,SE,146,5.0,11.0,60,0.00,,,0.00,VWS V14.01,2013-09-09 18:00:00,
2013-09-09 13:01:00,88.0,70.9,29.69,SSE,158,8.0,9.0,57,0.00,,CLR,0.00,VWS V14.01,2013-09-09 18:01:00,
2013-09-09 13:06:00,88.1,71.0,29.69,SSW,200,4.0,13.0,57,0.00,,CLR,0.00,VWS V14.01,2013-09-09 18:06:00,
2013-09-09 13:11:00,88.4,70.7,29.69,South,186,8.0,13.0,56,0.00,,CLR,0.00,VWS V14.01,2013-09-09 18:11:00,
2013-09-09 13:16:00,88.6,70.9,29.69,SE,139,5.0,15.0,56,0.00,,CLR,0.00,VWS V14.01,2013-09-09 18:16:00,
2013-09-09 13:21:00,89.0,71.3,29.69,SW,226,3.0,15.0,56,0.00,,CLR,0.00,VWS V14.01,2013-09-09 18:21:00,
2013-09-09 13:26:00,89.2,71.5,29.69,SE,128,8.0,15.0,56,0.00,,CLR,0.00,VWS V14.01,2013-09-09 18:26:00,
2013-09-09 13:30:00,87.1,70.5,29.70,SSW,207,3.0,13.0,58,0.00,,,0.00,VWS V14.01,2013-09-09 18:30:00,
2013-09-09 13:31:00,89.2,70.9,29.69,SSW,200,6.0,14.0,55,0.00,,CLR,0.00,VWS V14.01,2013-09-09 18:31:00,
2013-09-09 13:36:00,89.6,70.8,29.69,South,169,11.0,14.0,54,0.00,,CLR,0.00,VWS V14.01,2013-09-09 18:36:00,
2013-09-09 13:41:00,89.6,70.8,29.69,SSW,192,6.0,14.0,54,0.00,,CLR,0.00,VWS V14.01,2013-09-09 18:41:00,
2013-09-09 13:46:00,90.0,71.7,29.69,SW,235,12.0,14.0,55,0.00,,CLR,0.00,VWS V14.01,2013-09-09 18:46:00,
2013-09-09 13:51:00,90.3,71.4,29.69,WSW,245,9.0,14.0,54,0.00,,CLR,0.00,VWS V14.01,2013-09-09 18:51:00,
2013-09-09 13:56:00,90.5,71.1,29.68,South,179,9.0,15.0,53,0.00,,CLR,0.00,VWS V14.01,2013-09-09 18:56:00,
2013-09-09 14:00:00,87.9,70.8,29.69,SSW,200,6.0,12.0,57,0.00,,,0.00,VWS V14.01,2013-09-09 19:00:00,
2013-09-09 14:01:00,91.1,72.2,29.68,SSW,208,8.0,13.0,54,0.00,,CLR,0.00,VWS V14.01,2013-09-09 19:01:00,
2013-09-09 14:06:00,91.6,71.5,29.68,SSW,212,10.0,15.0,52,0.00,,CLR,0.00,VWS V14.01,2013-09-09 19:06:00,
2013-09-09 14:11:00,91.9,70.6,29.68,SSW,195,11.0,15.0,50,0.00,,CLR,0.00,VWS V14.01,2013-09-09 19:11:00,
2013-09-09 14:16:00,92.3,69.8,29.68,SW,217,15.0,17.0,48,0.00,,CLR,0.00,VWS V14.01,2013-09-09 19:16:00,
2013-09-09 14:21:00,92.5,69.3,29.68,SSE,147,8.0,17.0,47,0.00,,CLR,0.00,VWS V14.01,2013-09-09 19:21:00,
2013-09-09 14:26:00,93.0,69.8,29.67,SSW,199,13.0,17.0,47,0.00,,CLR,0.00,VWS V14.01,2013-09-09 19:26:00,
2013-09-09 14:30:00,89.2,70.4,29.69,WSW,248,8.0,15.0,54,0.00,,,0.00,VWS V14.01,2013-09-09 19:30:00,
2013-09-09 14:31:00,93.5,67.7,29.67,SSW,194,8.0,14.0,43,0.00,,CLR,0.00,VWS V14.01,2013-09-09 19:31:00,
2013-09-09 14:36:00,93.7,69.2,29.67,SSW,205,5.0,18.0,45,0.00,,CLR,0.00,VWS V14.01,2013-09-09 19:36:00,
2013-09-09 14:41:00,93.7,69.2,29.67,SE,129,9.0,18.0,45,0.00,,CLR,0.00,VWS V14.01,2013-09-09 19:41:00,
2013-09-09 14:46:00,93.8,68.6,29.67,SE,139,10.0,18.0,44,0.00,,CLR,0.00,VWS V14.01,2013-09-09 19:46:00,
2013-09-09 14:51:00,94.0,68.8,29.67,SSW,197,14.0,18.0,44,0.00,,CLR,0.00,VWS V14.01,2013-09-09 19:51:00,
2013-09-09 14:56:00,94.1,68.2,29.67,SSW,193,5.0,18.0,43,0.00,,CLR,0.00,VWS V14.01,2013-09-09 19:56:00,
2013-09-09 15:00:00,91.0,72.1,29.68,SSW,194,4.0,15.0,54,0.00,,,0.00,VWS V14.01,2013-09-09 20:00:00,
2013-09-09 15:01:00,94.5,67.9,29.67,SW,226,8.0,8.0,42,0.00,,CLR,0.00,VWS V14.01,2013-09-09 20:01:00,
2013-09-09 15:06:00,94.5,67.9,29.66,SSW,200,12.0,19.0,42,0.00,,CLR,0.00,VWS V14.01,2013-09-09 20:06:00,
2013-09-09 15:11:00,94.3,67.7,29.66,South,187,9.0,19.0,42,0.00,,CLR,0.00,VWS V14.01,2013-09-09 20:11:00,
2013-09-09 15:16:00,94.2,69.0,29.66,SSW,211,10.0,19.0,44,0.00,,CLR,0.00,VWS V14.01,2013-09-09 20:16:00,
2013-09-09 15:21:00,94.4,67.8,29.66,South,173,10.0,19.0,42,0.00,,CLR,0.00,VWS V14.01,2013-09-09 20:21:00,
2013-09-09 15:26:00,94.5,67.9,29.65,SSW,196,6.0,19.0,42,0.00,,CLR,0.00,VWS V14.01,2013-09-09 20:26:00,
2013-09-09 15:30:00,93.5,67.7,29.67,SSW,207,8.0,19.0,43,0.00,,,0.00,VWS V14.01,2013-09-09 20:30:00,
2013-09-09 15:31:00,94.8,68.2,29.65,South,186,7.0,7.0,42,0.00,,CLR,0.00,VWS V14.01,2013-09-09 20:31:00,
2013-09-09 15:36:00,95.0,67.6,29.65,South,189,9.0,18.0,41,0.00,,CLR,0.00,VWS V14.01,2013-09-09 20:36:00,
2013-09-09 15:41:00,95.1,66.3,29.65,SW,221,7.0,18.0,39,0.00,,CLR,0.00,VWS V14.01,2013-09-09 20:41:00,
2013-09-09 15:46:00,95.2,65.6,29.65,WNW,283,4.0,18.0,38,0.00,,CLR,0.00,VWS V14.01,2013-09-09 20:46:00,
2013-09-09 15:51:00,95.4,64.2,29.65,WSW,257,11.0,18.0,36,0.00,,CLR,0.00,VWS V14.01,2013-09-09 20:51:00,
2013-09-09 15:56:00,95.8,63.8,29.65,SW,231,9.0,18.0,35,0.00,,CLR,0.00,VWS V14.01,2013-09-09 20:56:00,
2013-09-09 16:00:00,94.4,67.8,29.67,South,184,6.0,18.0,42,0.00,,,0.00,VWS V14.01,2013-09-09 21:00:00,
2013-09-09 16:01:00,95.9,64.7,29.65,West,259,11.0,13.0,36,0.00,,CLR,0.00,VWS V14.01,2013-09-09 21:01:00,
2013-09-09 16:06:00,95.8,62.1,29.65,WSW,252,18.0,22.0,33,0.00,,CLR,0.00,VWS V14.01,2013-09-09 21:06:00,
2013-09-09 16:11:00,95.8,63.0,29.65,West,262,13.0,22.0,34,0.00,,CLR,0.00,VWS V14.01,2013-09-09 21:11:00,
2013-09-09 16:16:00,95.7,62.9,29.65,South,173,9.0,22.0,34,0.00,,CLR,0.00,VWS V14.01,2013-09-09 21:16:00,
2013-09-09 16:21:00,95.8,62.1,29.65,SSW,195,10.0,22.0,33,0.00,,CLR,0.00,VWS V14.01,2013-09-09 21:21:00,
2013-09-09 16:26:00,95.7,62.9,29.65,SSW,212,9.0,22.0,34,0.00,,CLR,0.00,VWS V14.01,2013-09-09 21:26:00,
2013-09-09 16:30:00,94.7,68.1,29.65,SSE,167,6.0,19.0,42,0.00,,,0.00,VWS V14.01,2013-09-09 21:30:00,
2013-09-09 16:31:00,95.6,63.6,29.65,SSW,207,7.0,11.0,35,0.00,,CLR,0.00,VWS V14.01,2013-09-09 21:31:00,
2013-09-09 16:36:00,95.6,63.6,29.65,SW,229,8.0,16.0,35,0.00,,CLR,0.00,VWS V14.01,2013-09-09 21:36:00,
2013-09-09 16:41:00,95.4,63.4,29.65,WSW,247,12.0,18.0,35,0.00,,CLR,0.00,VWS V14.01,2013-09-09 21:41:00,
2013-09-09 16:46:00,95.3,62.5,29.65,WSW,257,11.0,18.0,34,0.00,,CLR,0.00,VWS V14.01,2013-09-09 21:46:00,
2013-09-09 16:51:00,95.3,62.5,29.65,South,184,9.0,18.0,34,0.00,,CLR,0.00,VWS V14.01,2013-09-09 21:51:00,
2013-09-09 16:56:00,95.1,64.0,29.65,SW,226,6.0,18.0,36,0.00,,CLR,0.00,VWS V14.01,2013-09-09 21:56:00,
2013-09-09 17:00:00,95.9,64.7,29.65,West,262,15.0,20.0,36,0.00,,,0.00,VWS V14.01,2013-09-09 22:00:00,
2013-09-09 17:01:00,95.0,63.9,29.65,SW,235,12.0,12.0,36,0.00,,CLR,0.00,VWS V14.01,2013-09-09 22:01:00,
2013-09-09 17:06:00,94.8,63.7,29.66,SSE,160,13.0,17.0,36,0.00,,CLR,0.00,VWS V14.01,2013-09-09 22:06:00,
2013-09-09 17:11:00,94.7,62.8,29.66,SSW,210,9.0,17.0,35,0.00,,CLR,0.00,VWS V14.01,2013-09-09 22:11:00,
2013-09-09 17:16:00,94.5,62.6,29.66,WSW,241,6.0,17.0,35,0.00,,CLR,0.00,VWS V14.01,2013-09-09 22:16:00,
2013-09-09 17:21:00,94.3,63.3,29.66,WNW,294,6.0,20.0,36,0.00,,CLR,0.00,VWS V14.01,2013-09-09 22:21:00,
2013-09-09 17:26:00,94.1,63.1,29.66,WSW,248,7.0,20.0,36,0.00,,CLR,0.00,VWS V14.01,2013-09-09 22:26:00,
2013-09-09 17:30:00,95.6,63.6,29.65,SW,217,8.0,23.0,35,0.00,,,0.00,VWS V14.01,2013-09-09 22:30:00,
2013-09-09 17:31:00,94.1,63.9,29.66,SW,233,15.0,15.0,37,0.00,,CLR,0.00,VWS V14.01,2013-09-09 22:31:00,
2013-09-09 17:36:00,93.8,64.4,29.66,WSW,240,7.0,16.0,38,0.00,,CLR,0.00,VWS V14.01,2013-09-09 22:36:00,
2013-09-09 17:41:00,93.6,64.2,29.66,WSW,257,3.0,16.0,38,0.00,,CLR,0.00,VWS V14.01,2013-09-09 22:41:00,
2013-09-09 17:46:00,93.4,63.3,29.66,WSW,245,6.0,16.0,37,0.00,,CLR,0.00,VWS V14.01,2013-09-09 22:46:00,
2013-09-09 17:51:00,93.2,63.1,29.66,SW,221,8.0,16.0,37,0.00,,CLR,0.00,VWS V14.01,2013-09-09 22:51:00,
2013-09-09 17:56:00,92.9,63.6,29.66,WSW,246,8.0,16.0,38,0.00,,CLR,0.00,VWS V14.01,2013-09-09 22:56:00,
2013-09-09 18:00:00,95.0,63.9,29.65,WSW,243,8.0,18.0,36,0.00,,,0.00,VWS V14.01,2013-09-09 23:00:00,
2013-09-09 18:01:00,92.7,63.4,29.66,SSW,207,6.0,7.0,38,0.00,,CLR,0.00,VWS V14.01,2013-09-09 23:01:00,
2013-09-09 18:06:00,92.6,63.3,29.66,SSE,151,10.0,17.0,38,0.00,,CLR,0.00,VWS V14.01,2013-09-09 23:06:00,
2013-09-09 18:11:00,92.4,63.9,29.66,SW,220,3.0,17.0,39,0.00,,CLR,0.00,VWS V14.01,2013-09-09 23:11:00,
2013-09-09 18:16:00,92.1,63.6,29.66,SW,214,6.0,17.0,39,0.00,,CLR,0.00,VWS V14.01,2013-09-09 23:16:00,
2013-09-09 18:21:00,91.8,63.3,29.66,SW,221,7.0,17.0,39,0.00,,CLR,0.00,VWS V14.01,2013-09-09 23:21:00,
2013-09-09 18:26:00,91.4,63.7,29.66,SW,232,2.0,17.0,40,0.00,,CLR,0.00,VWS V14.01,2013-09-09 23:26:00,
2013-09-09 18:30:00,94.1,63.9,29.66,WSW,238,6.0,20.0,37,0.00,,,0.00,VWS V14.01,2013-09-09 23:30:00,
2013-09-09 18:31:00,91.0,63.3,29.66,WSW,238,8.0,8.0,40,0.00,,CLR,0.00,VWS V14.01,2013-09-09 23:31:00,
2013-09-09 18:36:00,90.6,63.7,29.66,WSW,240,6.0,15.0,41,0.00,,CLR,0.00,VWS V14.01,2013-09-09 23:36:00,
2013-09-09 18:41:00,90.2,63.3,29.66,SW,219,5.0,15.0,41,0.00,,CLR,0.00,VWS V14.01,2013-09-09 23:41:00,
2013-09-09 18:46:00,89.8,63.7,29.66,SW,224,3.0,15.0,42,0.00,,CLR,0.00,VWS V14.01,2013-09-09 23:46:00,
2013-09-09 18:51:00,89.5,63.4,29.66,SW,224,5.0,15.0,42,0.00,,CLR,0.00,VWS V14.01,2013-09-09 23:51:00,
2013-09-09 18:56:00,89.1,63.0,29.66,WSW,255,5.0,15.0,42,0.00,,CLR,0.00,VWS V14.01,2013-09-09 23:56:00,
2013-09-09 19:00:00,92.7,63.4,29.66,SW,217,6.0,16.0,38,0.00,,,0.00,VWS V14.01,2013-09-10 00:00:00,
2013-09-09 19:01:00,88.6,63.3,29.67,WSW,239,6.0,6.0,43,0.00,,CLR,0.00,VWS V14.01,2013-09-10 00:01:00,
2013-09-09 19:06:00,88.0,63.4,29.67,SW,217,5.0,11.0,44,0.00,,CLR,0.00,VWS V14.01,2013-09-10 00:06:00,
2013-09-09 19:11:00,87.5,63.6,29.67,SW,222,7.0,11.0,45,0.00,,CLR,0.00,VWS V14.01,2013-09-10 00:11:00,
2013-09-09 19:16:00,87.0,63.1,29.67,SSW,200,6.0,11.0,45,0.00,,CLR,0.00,VWS V14.01,2013-09-10 00:16:00,
2013-09-09 19:21:00,86.6,63.4,29.67,West,271,6.0,11.0,46,0.00,,CLR,0.00,VWS V14.01,2013-09-10 00:21:00,
2013-09-09 19:26:00,86.2,63.0,29.67,WSW,256,5.0,11.0,46,0.00,,CLR,0.00,VWS V14.01,2013-09-10 00:26:00,
2013-09-09 19:30:00,91.0,63.3,29.66,WSW,248,5.0,17.0,40,0.00,,,0.00,VWS V14.01,2013-09-10 00:30:00,
2013-09-09 19:31:00,85.8,63.3,29.67,SW,233,5.0,6.0,47,0.00,,CLR,0.00,VWS V14.01,2013-09-10 00:31:00,
2013-09-09 19:36:00,85.4,63.5,29.67,SW,231,7.0,10.0,48,0.00,,CLR,0.00,VWS V14.01,2013-09-10 00:36:00,
2013-09-09 19:41:00,85.1,63.2,29.67,WSW,246,4.0,11.0,48,0.00,,CLR,0.00,VWS V14.01,2013-09-10 00:41:00,
2013-09-09 19:46:00,84.8,63.5,29.68,WSW,245,2.0,11.0,49,0.00,,CLR,0.00,VWS V14.01,2013-09-10 00:46:00,
2013-09-09 19:51:00,84.5,63.3,29.68,WSW,238,4.0,11.0,49,0.00,,CLR,0.00,VWS V14.01,2013-09-10 00:51:00,
2013-09-09 19:56:00,84.5,63.3,29.68,WSW,242,4.0,11.0,49,0.00,,CLR,0.00,VWS V14.01,2013-09-10 00:56:00,
2013-09-09 20:00:00,88.6,63.3,29.67,WSW,238,5.0,15.0,43,0.00,,,0.00,VWS V14.01,2013-09-10 01:00:00,
2013-09-09 20:01:00,84.4,63.2,29.68,SW,221,6.0,6.0,49,0.00,,CLR,0.00,VWS V14.01,2013-09-10 01:01:00,
2013-09-09 20:06:00,84.2,63.0,29.68,SW,235,5.0,9.0,49,0.00,,CLR,0.00,VWS V14.01,2013-09-10 01:06:00,
2013-09-09 20:11:00,84.1,62.9,29.68,SW,229,11.0,12.0,49,0.00,,CLR,0.00,VWS V14.01,2013-09-10 01:11:00,
2013-09-09 20:16:00,84.0,63.4,29.69,SW,231,4.0,12.0,50,0.00,,CLR,0.00,VWS V14.01,2013-09-10 01:16:00,
2013-09-09 20:21:00,83.7,63.1,29.69,SW,224,6.0,12.0,50,0.00,,CLR,0.00,VWS V14.01,2013-09-10 01:21:00,
2013-09-09 20:26:00,83.7,63.1,29.69,SW,218,5.0,12.0,50,0.00,,CLR,0.00,VWS V14.01,2013-09-10 01:26:00,
2013-09-09 20:30:00,85.8,63.3,29.67,WSW,246,4.0,11.0,47,0.00,,,0.00,VWS V14.01,2013-09-10 01:30:00,
2013-09-09 20:31:00,83.4,63.4,29.69,SSW,210,4.0,4.0,51,0.00,,CLR,0.00,VWS V14.01,2013-09-10 01:31:00,
2013-09-09 20:36:00,83.2,63.2,29.69,SW,231,5.0,12.0,51,0.00,,CLR,0.00,VWS V14.01,2013-09-10 01:36:00,
2013-09-09 20:41:00,83.0,63.6,29.69,West,263,5.0,12.0,52,0.00,,CLR,0.00,VWS V14.01,2013-09-10 01:41:00,
2013-09-09 20:46:00,82.7,63.3,29.70,WSW,242,7.0,12.0,52,0.00,,CLR,0.00,VWS V14.01,2013-09-10 01:46:00,
2013-09-09 20:51:00,82.4,63.6,29.70,SW,236,6.0,12.0,53,0.00,,CLR,0.00,VWS V14.01,2013-09-10 01:51:00,
2013-09-09 20:55:00,82.2,63.4,29.70,WSW,239,5.0,12.0,53,0.00,,CLR,0.00,VWS V14.01,2013-09-10 01:55:00,
2013-09-09 21:00:00,82.1,63.8,29.70,WSW,245,4.0,5.0,54,0.00,,CLR,0.00,VWS V14.01,2013-09-10 02:00:00,
2013-09-09 21:05:00,82.0,63.7,29.70,SW,218,9.0,11.0,54,0.00,,CLR,0.00,VWS V14.01,2013-09-10 02:05:00,
2013-09-09 21:10:00,81.9,63.6,29.70,WSW,239,7.0,11.0,54,0.00,,CLR,0.00,VWS V14.01,2013-09-10 02:10:00,
2013-09-09 21:15:00,81.6,63.9,29.71,SW,226,7.0,11.0,55,0.00,,CLR,0.00,VWS V14.01,2013-09-10 02:15:00,
2013-09-09 21:20:00,81.4,63.7,29.71,SW,235,10.0,12.0,55,0.00,,CLR,0.00,VWS V14.01,2013-09-10 02:20:00,
2013-09-09 21:25:00,81.5,63.8,29.71,WSW,253,6.0,12.0,55,0.00,,CLR,0.00,VWS V14.01,2013-09-10 02:25:00,
2013-09-09 21:30:00,81.4,63.7,29.71,SW,227,8.0,8.0,55,0.00,,CLR,0.00,VWS V14.01,2013-09-10 02:30:00,
2013-09-09 21:35:00,81.3,64.1,29.71,WSW,252,7.0,12.0,56,0.00,,CLR,0.00,VWS V14.01,2013-09-10 02:35:00,
2013-09-09 21:40:00,81.3,64.1,29.71,SSW,195,6.0,13.0,56,0.00,,CLR,0.00,VWS V14.01,2013-09-10 02:40:00,
2013-09-09 21:45:00,81.1,63.9,29.71,SW,232,10.0,15.0,56,0.00,,CLR,0.00,VWS V14.01,2013-09-10 02:45:00,
2013-09-09 21:50:00,81.0,64.3,29.71,WSW,253,9.0,15.0,57,0.00,,CLR,0.00,VWS V14.01,2013-09-10 02:50:00,
2013-09-09 21:55:00,80.9,64.2,29.71,WSW,242,10.0,15.0,57,0.00,,CLR,0.00,VWS V14.01,2013-09-10 02:55:00,
2013-09-09 22:00:00,81.0,64.3,29.71,SSW,200,5.0,15.0,57,0.00,,CLR,0.00,VWS V14.01,2013-09-10 03:00:00,
2013-09-09 22:05:00,81.2,64.5,29.71,WSW,255,10.0,15.0,57,0.00,,CLR,0.00,VWS V14.01,2013-09-10 03:05:00,
2013-09-09 22:10:00,81.2,64.5,29.71,SW,225,12.0,15.0,57,0.00,,CLR,0.00,VWS V14.01,2013-09-10 03:10:00,
2013-09-09 22:15:00,81.2,64.5,29.71,SW,228,8.0,15.0,57,0.00,,CLR,0.00,VWS V14.01,2013-09-10 03:15:00,
2013-09-09 22:20:00,81.3,64.6,29.72,SW,214,9.0,15.0,57,0.00,,CLR,0.00,VWS V14.01,2013-09-10 03:20:00,
2013-09-09 22:25:00,81.3,65.1,29.72,SW,224,11.0,15.0,58,0.00,,CLR,0.00,VWS V14.01,2013-09-10 03:25:00,
2013-09-09 22:30:00,81.3,65.1,29.72,WSW,240,7.0,15.0,58,0.00,,CLR,0.00,VWS V14.01,2013-09-10 03:30:00,
2013-09-09 22:35:00,81.2,65.0,29.72,SW,232,4.0,14.0,58,0.00,,CLR,0.00,VWS V14.01,2013-09-10 03:35:00,
2013-09-09 22:40:00,81.1,64.9,29.72,West,265,8.0,14.0,58,0.00,,CLR,0.00,VWS V14.01,2013-09-10 03:40:00,
2013-09-09 22:45:00,80.9,65.2,29.72,WSW,245,5.0,15.0,59,0.00,,CLR,0.00,VWS V14.01,2013-09-10 03:45:00,
2013-09-09 22:50:00,80.9,65.2,29.72,West,278,9.0,15.0,59,0.00,,CLR,0.00,VWS V14.01,2013-09-10 03:50:00,
2013-09-09 22:55:00,80.8,65.2,29.72,SW,228,9.0,15.0,59,0.00,,CLR,0.00,VWS V14.01,2013-09-10 03:55:00,
2013-09-09 23:00:00,80.6,65.4,29.72,SSW,203,8.0,15.0,60,0.00,,CLR,0.00,VWS V14.01,2013-09-10 04:00:00,
2013-09-09 23:01:00,80.6,65.4,29.72,WSW,245,5.0,7.0,60,0.00,,CLR,0.00,VWS V14.01,2013-09-10 04:01:00,
2013-09-09 23:03:00,80.5,65.3,29.72,SW,226,9.0,12.0,60,0.00,,CLR,0.00,VWS V14.01,2013-09-10 04:03:00,
2013-09-09 23:08:00,80.3,65.2,29.72,SW,232,10.0,14.0,60,0.00,,CLR,0.00,VWS V14.01,2013-09-10 04:08:00,
2013-09-09 23:13:00,80.0,65.4,29.72,WSW,250,7.0,14.0,61,0.00,,CLR,0.00,VWS V14.01,2013-09-10 04:13:00,
2013-09-09 23:18:00,79.8,65.2,29.72,SSW,203,9.0,14.0,61,0.00,,CLR,0.00,VWS V14.01,2013-09-10 04:18:00,
2013-09-09 23:23:00,79.5,65.3,29.72,SW,234,7.0,14.0,62,0.00,,CLR,0.00,VWS V14.01,2013-09-10 04:23:00,
2013-09-09 23:28:00,79.2,65.1,29.72,West,274,5.0,14.0,62,0.00,,CLR,0.00,VWS V14.01,2013-09-10 04:28:00,
2013-09-09 23:30:00,81.3,65.1,29.72,WSW,240,7.0,15.0,58,0.00,,,0.00,VWS V14.01,2013-09-10 04:30:00,
2013-09-09 23:33:00,79.0,64.9,29.73,WSW,250,5.0,12.0,62,0.00,,CLR,0.00,VWS V14.01,2013-09-10 04:33:00,
2013-09-09 23:38:00,78.9,65.2,29.73,WSW,253,9.0,13.0,63,0.00,,CLR,0.00,VWS V14.01,2013-09-10 04:38:00,
2013-09-09 23:43:00,78.9,64.8,29.73,SW,232,6.0,13.0,62,0.00,,CLR,0.00,VWS V14.01,2013-09-10 04:43:00,
2013-09-09 23:48:00,78.9,64.8,29.73,West,269,5.0,13.0,62,0.00,,CLR,0.00,VWS V14.01,2013-09-10 04:48:00,
2013-09-09 23:53:00,78.8,64.7,29.73,WSW,255,10.0,14.0,62,0.00,,CLR,0.00,VWS V14.01,2013-09-10 04:53:00,
2013-09-09 23:58:00,78.9,64.8,29.73,West,263,4.0,14.0,62,0.00,,CLR,0.00,VWS V14.01,2013-09-10 04:58:00,